Date String (YYYY-MM-DD hh:mm:ss) UTC,Instrument flags,Ambient pressure (hPa),Sample flow (lpm),Bypass flow (lpm),Sample temperature (°C),Ambient temperature (°C),ASC tube jacket temperature (°C),LED temperature (°C),Box temperature (°C),Sample RH (%),Span deviation,Mass concentration (μg/m³),Mass concentration (μg/m³),Mass concentration (μg/m³)
DateTimeUTC,F1_M11,P_M11,Q1_M11,Q2_M11,T1_M11,T2_M11,T3_M11,T4_M11,T5_M11,U1_M11,ZSPAN_M11,X0_M11,X2_M11,X1_M11
2023-02-19 11:00:00,,0817.6,5.01,0.00,21.7,19.8,00.0,30.7,23.2,07.0,0000.0,0007.84,0002.93,0001.75
2023-02-19 11:01:00,,0817.5,5.01,0.00,21.6,19.7,00.0,30.6,23.2,06.9,0000.0,0009.46,0002.95,0001.76
2023-02-19 11:02:00,,0817.6,4.99,0.00,21.6,20.5,00.0,30.6,23.3,07.0,0000.0,0009.29,0002.95,0001.77
2023-02-19 11:03:00,,0817.7,5.00,0.00,21.8,21.7,00.0,30.5,23.7,07.0,0000.0,0009.37,0002.99,0001.78
2023-02-19 11:04:00,,0817.8,4.94,0.00,21.9,22.7,00.0,30.5,24.0,07.0,0000.0,0009.25,0002.95,0001.80
2023-02-19 11:05:00,,0817.9,5.01,0.00,22.1,23.0,00.0,30.6,24.2,07.1,0000.0,0009.07,0002.90,0001.80
2023-02-19 11:06:00,,0817.8,5.00,0.00,22.1,22.2,00.0,30.7,24.0,07.2,0000.0,0008.76,0002.86,0001.81
2023-02-19 11:07:00,,0817.6,4.99,0.00,22.1,21.6,00.0,30.8,23.8,07.0,0000.0,0008.85,0002.86,0001.82
2023-02-19 11:08:00,,0817.7,5.03,0.00,22.0,21.1,00.0,30.8,23.7,06.9,0000.0,0008.81,0002.83,0001.84
2023-02-19 11:09:00,,0817.7,4.99,0.00,22.0,20.7,00.0,30.8,23.6,06.9,0000.0,0008.89,0002.87,0001.86
2023-02-19 11:10:00,,0817.8,5.00,0.00,22.0,20.5,00.0,30.8,23.5,06.9,0000.0,0009.67,0002.92,0001.86
2023-02-19 11:11:00,,0817.9,5.00,0.00,21.9,20.3,00.0,30.8,23.4,07.1,0000.0,0009.64,0002.92,0001.88
2023-02-19 11:12:00,,0817.9,5.00,0.00,21.9,20.2,00.0,30.8,23.3,07.1,0000.0,0008.34,0002.96,0001.89
2023-02-19 11:13:00,,0818.0,4.99,0.00,21.9,20.6,00.0,30.7,23.4,07.1,0000.0,0007.31,0002.97,0001.90
2023-02-19 11:14:00,,0818.0,5.01,0.00,22.0,21.8,00.0,30.7,23.8,07.1,0000.0,0007.15,0002.93,0001.93
2023-02-19 11:15:00,,0818.0,5.03,0.00,22.1,22.8,00.0,30.7,24.2,07.0,0000.0,0007.31,0002.92,0001.93
2023-02-19 11:16:00,,0818.1,5.04,0.00,22.3,23.2,00.0,30.8,24.3,06.9,0000.0,0007.81,0002.99,0001.94
2023-02-19 11:17:00,,0818.1,4.99,0.00,22.3,22.5,00.0,30.9,24.2,06.9,0000.0,0007.86,0002.97,0001.93
2023-02-19 11:18:00,,0818.0,5.03,0.00,22.2,21.8,00.0,30.9,24.0,07.0,0000.0,0007.87,0003.00,0001.94
2023-02-19 11:19:00,,0818.2,5.00,0.00,22.2,21.3,00.0,31.0,23.9,06.9,0000.0,0007.74,0002.96,0001.94
2023-02-19 11:20:00,,0818.0,5.01,0.00,22.2,21.0,00.0,31.0,23.7,06.9,0000.0,0007.69,0002.95,0001.94
2023-02-19 11:21:00,,0818.2,5.02,0.00,22.1,20.7,00.0,31.0,23.6,06.9,0000.0,0006.87,0002.95,0001.96
2023-02-19 11:22:00,,0818.3,5.00,0.00,22.1,20.4,00.0,31.0,23.5,07.0,0000.0,0006.43,0002.95,0001.96
2023-02-19 11:23:00,,0818.3,5.00,0.00,22.0,20.2,00.0,31.0,23.5,07.1,0000.0,0006.79,0002.96,0001.94
2023-02-19 11:24:00,,0818.5,5.01,0.00,22.0,20.5,00.0,30.9,23.5,07.1,0000.0,0007.37,0002.97,0001.95
2023-02-19 11:25:00,,0818.5,4.99,0.00,22.1,21.6,00.0,30.9,23.8,07.0,0000.0,0007.36,0002.99,0001.95
2023-02-19 11:26:00,,0818.5,5.03,0.00,22.2,22.6,00.0,30.8,24.2,07.0,0000.0,0007.43,0003.07,0001.94
2023-02-19 11:27:00,,0818.5,4.96,0.00,22.3,23.3,00.0,30.9,24.4,07.0,0000.0,0007.16,0003.02,0001.93
2023-02-19 11:28:00,,0818.5,5.00,0.00,22.4,22.8,00.0,31.0,24.3,07.1,0000.0,0007.43,0002.99,0001.92
2023-02-19 11:29:00,,0818.6,5.01,0.00,22.4,22.0,00.0,31.1,24.1,07.1,0000.0,0007.44,0002.95,0001.90
2023-02-19 11:30:00,,0818.6,5.02,0.00,22.3,21.4,00.0,31.1,24.0,07.1,0000.0,0007.51,0002.95,0001.90
2023-02-19 11:31:00,,0818.7,5.01,0.00,22.3,21.1,00.0,31.1,23.9,07.1,0000.0,0007.66,0002.95,0001.90
2023-02-19 11:32:00,,0818.8,5.02,0.00,22.2,20.8,00.0,31.1,23.8,07.1,0000.0,0007.63,0002.91,0001.88
2023-02-19 11:33:00,,0818.8,5.00,0.00,22.2,20.6,00.0,31.1,23.7,07.2,0000.0,0007.71,0002.96,0001.89
2023-02-19 11:34:00,,0818.8,5.00,0.00,22.1,20.4,00.0,31.1,23.6,07.1,0000.0,0007.61,0002.88,0001.88
2023-02-19 11:35:00,,0818.7,4.99,0.00,22.1,20.2,00.0,31.1,23.6,07.2,0000.0,0007.02,0002.88,0001.87
2023-02-19 11:36:00,,0818.9,5.01,0.00,22.1,20.7,00.0,31.0,23.7,07.0,0000.0,0006.92,0002.85,0001.86
2023-02-19 11:37:00,,0818.9,5.00,0.00,22.2,21.9,00.0,30.9,24.0,07.0,0000.0,0006.68,0002.79,0001.85
2023-02-19 11:38:00,,0819.0,5.00,0.00,22.3,22.8,00.0,31.0,24.3,07.0,0000.0,0006.74,0002.73,0001.86
2023-02-19 11:39:00,,0819.0,5.01,0.00,22.4,22.5,00.0,31.0,24.3,07.0,0000.0,0006.36,0002.77,0001.87
2023-02-19 11:40:00,,0819.0,5.02,0.00,22.3,21.9,00.0,31.1,24.1,07.2,0000.0,0006.87,0002.77,0001.90
2023-02-19 11:41:00,,0818.9,5.00,0.00,22.3,21.4,00.0,31.1,23.9,07.2,0000.0,0007.21,0002.82,0001.91
2023-02-19 11:42:00,,0819.0,5.00,0.00,22.2,20.9,00.0,31.1,23.8,07.2,0000.0,0006.86,0002.83,0001.92
2023-02-19 11:43:00,,0819.0,5.00,0.00,22.2,20.7,00.0,31.1,23.7,07.3,0000.0,0006.83,0002.86,0001.91
2023-02-19 11:44:00,,0819.0,4.99,0.00,22.1,20.5,00.0,31.1,23.6,07.2,0000.0,0006.47,0002.78,0001.91
2023-02-19 11:45:00,,0819.0,5.00,0.00,22.1,20.3,00.0,31.1,23.5,07.1,0000.0,0006.52,0002.78,0001.91
2023-02-19 11:46:00,,0819.1,5.00,0.00,22.0,20.2,00.0,31.1,23.5,07.2,0000.0,0006.60,0002.80,0001.92
2023-02-19 11:47:00,,0819.2,5.01,0.00,22.0,20.5,00.0,31.0,23.5,07.3,0000.0,0006.42,0002.74,0001.91
2023-02-19 11:48:00,,0819.2,4.98,0.00,22.1,21.7,00.0,31.0,23.9,07.3,0000.0,0006.24,0002.71,0001.92
2023-02-19 11:49:00,,0819.3,5.02,0.00,22.2,22.8,00.0,30.9,24.2,07.3,0000.0,0006.20,0002.79,0001.93
2023-02-19 11:50:00,,0819.3,4.90,0.00,22.4,23.3,00.0,31.0,24.4,07.3,0000.0,0006.74,0002.79,0001.91
2023-02-19 11:51:00,,0819.2,4.98,0.00,22.4,22.7,00.0,31.1,24.3,07.2,0000.0,0006.21,0002.80,0001.90
2023-02-19 11:52:00,,0819.2,5.02,0.00,22.4,22.0,00.0,31.1,24.1,07.2,0000.0,0005.86,0002.78,0001.89
2023-02-19 11:53:00,,0819.2,4.98,0.00,22.3,21.4,00.0,31.2,24.0,07.0,0000.0,0005.83,0002.79,0001.89
2023-02-19 11:54:00,,0819.3,5.04,0.00,22.3,21.1,00.0,31.2,23.8,06.9,0000.0,0005.85,0002.79,0001.89
2023-02-19 11:55:00,,0819.3,4.99,0.00,22.2,20.8,00.0,31.2,23.8,07.2,0000.0,0005.94,0002.82,0001.90
2023-02-19 11:56:00,,0819.3,5.00,0.00,22.2,20.6,00.0,31.2,23.6,07.2,0000.0,0006.00,0002.86,0001.89
2023-02-19 11:57:00,,0819.3,5.00,0.00,22.1,20.3,00.0,31.2,23.6,07.2,0000.0,0005.72,0002.82,0001.87
2023-02-19 11:58:00,,0819.3,5.02,0.00,22.1,20.2,00.0,31.1,23.5,07.1,0000.0,0005.99,0002.84,0001.87
2023-02-19 11:59:00,,0819.3,5.00,0.00,22.0,20.1,00.0,31.1,23.5,07.2,0000.0,0006.88,0002.91,0001.87
